FW8901 Weather Reports


Display with metric or nautical units.
time (UTC)temp
F
wind
direction
speed
MPH
gust
MPH
rain 1hr
in
rain 24hr
in
rain mn
in
humidity
%
barometer
mb
20260903182549 84 0.0 0.0 0.00 0.11 0.00 77 1016.6
20260903182046 84 0.0 0.0 0.00 0.11 0.00 77 1016.9
20260903181609 84 0.0 0.0 0.00 0.11 0.00 77 1016.5
20260903181046 84 0.0 0.0 0.00 0.11 0.00 78 1016.3
20260903180547 84 0.0 0.0 0.00 0.11 0.00 77 1016.6
20260903180107 84 0.0 0.0 0.00 0.11 0.00 76 1016.8
20260903175546 84 0.0 0.0 0.00 0.11 0.00 77 1017.0
20260903175046 84 0.0 0.0 0.00 0.11 0.00 76 1017.2
20260903174603 84 0.0 0.0 0.00 0.11 0.00 78 1017.4
20260903174050 83 0.0 0.0 0.00 0.11 0.00 77 1017.3
20260903173546 84 0.0 0.0 0.00 0.11 0.00 75 1017.3
20260903173106 84 0.0 0.0 0.00 0.11 0.00 75 1017.4
20260903172548 85 0.0 0.0 0.00 0.11 0.00 75 1017.4
20260903172047 85 0.0 0.0 0.00 0.11 0.00 75 1017.5
20260903171617 85 0.0 0.0 0.00 0.11 0.00 75 1017.8
20260903171046 85 0.0 0.0 0.00 0.11 0.00 75 1017.8
20260903170546 85 0.0 0.0 0.00 0.11 0.00 73 1018.0
20260903170107 85 0.0 0.0 0.00 0.11 0.00 76 1018.0
20260903165556 84 0.0 0.0 0.00 0.11 0.00 74 1018.0
20260903165046 85 0.0 0.0 0.00 0.11 0.00 77 1018.1
20260903164623 84 0.0 0.0 0.00 0.11 0.00 75 1018.0
20260903164046 84 0.0 0.0 0.00 0.11 0.00 76 1018.2
20260903163547 84 0.0 0.0 0.00 0.11 0.00 77 1018.3
20260903163101 84 0.0 0.0 0.00 0.11 0.00 76 1018.2
20260903162555 84 0.0 0.0 0.00 0.11 0.00 78 1018.1
20260903162047 83 0.0 0.0 0.00 0.11 0.00 78 1018.2
20260903161605 83 0.0 0.0 0.00 0.11 0.00 76 1018.1
20260903161049 83 0.0 0.0 0.00 0.11 0.00 78 1017.9
20260903160546 83 0.0 0.0 0.00 0.11 0.00 78 1018.0
20260903160129 83 0.0 0.0 0.00 0.11 0.00 79 1018.0
20260903155552 82 0.0 0.0 0.00 0.11 0.00 81 1018.1
20260903155049 81 0.0 0.0 0.00 0.11 0.00 82 1018.2
20260903154611 81 0.0 0.0 0.00 0.11 0.00 82 1018.2
20260903154053 81 0.0 0.0 0.00 0.11 0.00 83 1018.2
20260903153550 81 0.0 0.0 0.00 0.11 0.00 82 1018.0
20260903153112 80 0.0 0.0 0.00 0.11 0.00 83 1018.2
20260903152552 80 0.0 0.0 0.00 0.11 0.00 86 1018.2
20260903152047 80 0.0 0.0 0.00 0.11 0.00 86 1018.4
20260903151608 79 0.0 0.0 0.00 0.11 0.00 86 1018.3
20260903151046 79 0.0 0.0 0.00 0.11 0.00 86 1018.4
20260903150549 79 0.0 0.0 0.00 0.11 0.00 86 1018.4
20260903150113 79 0.0 0.0 0.00 0.11 0.00 85 1018.4
20260903145553 78 0.0 0.0 0.00 0.11 0.00 86 1018.4
20260903145059 78 0.0 0.0 0.00 0.11 0.00 89 1018.2
20260903144607 78 0.0 0.0 0.00 0.11 0.00 88 1018.1
20260903144052 77 0.0 0.0 0.00 0.11 0.00 90 1018.2
20260903143550 77 0.0 0.0 0.00 0.11 0.00 90 1017.9
20260903143112 76 0.0 0.0 0.00 0.11 0.00 91 1018.1
20260903142549 76 0.0 0.0 0.00 0.11 0.00 92 1018.0
20260903142051 76 0.0 0.0 0.00 0.11 0.00 93 1018.0
20260903141613 76 0.0 0.0 0.00 0.11 0.00 93 1018.1
20260903141046 76 0.0 0.0 0.00 0.11 0.00 93 1018.0
20260903140547 75 0.0 0.0 0.00 0.11 0.00 93 1018.0
20260903140109 75 0.0 0.0 0.00 0.11 0.00 93 1018.0
20260903135550 75 0.0 0.0 0.00 0.11 0.00 94 1018.2
20260903135051 75 0.0 0.0 0.00 0.11 0.00 95 1018.3
20260903134601 75 0.0 0.0 0.00 0.11 0.00 95 1018.3
20260903134051 75 0.0 0.0 0.00 0.11 0.00 95 1018.3
20260903133550 75 0.0 0.0 0.00 0.11 0.00 95 1018.1
20260903133100 75 0.0 0.0 0.00 0.11 0.00 96 1018.2
20260903132548 74 0.0 0.0 0.00 0.11 0.00 96 1018.3
20260903132046 74 0.0 0.0 0.00 0.11 0.00 96 1018.3
20260903131557 74 0.0 0.0 0.00 0.11 0.00 96 1018.4
20260903131047 73 0.0 0.0 0.00 0.11 0.00 96 1018.7
20260903130547 73 0.0 0.0 0.00 0.11 0.00 96 1018.7
20260903130056 73 0.0 0.0 0.00 0.11 0.00 96 1018.8
20260903125546 73 0.0 0.0 0.00 0.11 0.00 96 1018.8
20260903125102 73 0.0 0.0 0.00 0.11 0.00 96 1018.8
20260903124606 73 0.0 0.0 0.00 0.11 0.00 96 1018.9
20260903124046 73 0.0 0.0 0.00 0.11 0.00 96 1019.0
20260903123546 73 0.0 0.0 0.00 0.11 0.00 96 1019.0
20260903123106 72 0.0 0.0 0.00 0.11 0.00 96 1019.0
20260903122547 72 0.0 0.0 0.00 0.11 0.00 96 1018.9
20260903122059 72 0.0 0.0 0.00 0.11 0.00 96 1018.9
20260903121608 72 0.0 0.0 0.00 0.11 0.00 95 1018.9
20260903121046 72 0.0 0.0 0.00 0.11 0.00 95 1019.1
20260903120546 72 0.0 0.0 0.00 0.11 0.00 95 1018.9
20260903120107 72 0.0 0.0 0.00 0.11 0.00 95 1018.9
20260903115545 72 0.0 0.0 0.00 0.11 0.00 95 1018.8
20260903115056 72 0.0 0.0 0.00 0.11 0.00 96 1018.7
20260903114607 72 0.0 0.0 0.00 0.11 0.00 96 1018.2
20260903114045 72 0.0 0.0 0.00 0.11 0.00 95 1018.2
20260903113546 72 0.0 0.0 0.00 0.11 0.00 96 1018.0
20260903113057 72 0.0 0.0 0.00 0.11 0.00 96 1018.2
20260903112547 72 0.0 0.0 0.00 0.11 0.00 95 1018.0
20260903112046 72 0.0 0.0 0.00 0.11 0.00 95 1017.6
20260903111604 72 0.0 0.0 0.00 0.11 0.00 95 1017.7
20260903111048 72 0.0 0.0 0.00 0.11 0.00 95 1017.7
20260903110546 72 0.0 0.0 0.00 0.11 0.00 95 1017.6
20260903105551 72 0.0 0.0 0.00 0.11 0.00 95 1017.4
20260903105047 72 0.0 0.0 0.00 0.11 0.00 95 1017.1
20260903104607 72 0.0 0.0 0.00 0.11 0.00 95 1017.1
20260903104046 72 0.0 0.0 0.00 0.11 0.00 95 1017.0
20260903103546 72 0.0 0.0 0.00 0.11 0.00 95 1016.9
20260903103110 72 0.0 0.0 0.00 0.11 0.00 95 1016.8
20260903102546 72 0.0 0.0 0.00 0.11 0.00 95 1016.8
20260903102058 72 0.0 0.0 0.00 0.11 0.00 95 1016.8
20260903101611 72 0.0 0.0 0.00 0.11 0.00 95 1016.8
20260903101046 72 0.0 0.0 0.00 0.11 0.00 95 1016.8
20260903100546 72 0.0 0.0 0.00 0.11 0.00 95 1016.7
20260903100109 72 0.0 0.0 0.00 0.11 0.00 95 1016.7
20260903095545 72 0.0 0.0 0.00 0.11 0.00 95 1016.8
20260903095046 72 0.0 0.0 0.00 0.11 0.00 95 1016.8
20260903094629 72 0.0 0.0 0.00 0.11 0.00 95 1016.9
20260903094047 72 0.0 0.0 0.00 0.11 0.00 95 1016.8
20260903093552 72 0.0 0.0 0.00 0.11 0.00 95 1016.8
20260903093112 72 0.0 0.0 0.00 0.11 0.00 95 1016.9
20260903092546 72 0.0 0.0 0.00 0.11 0.00 95 1016.9
20260903092046 72 0.0 0.0 0.00 0.11 0.00 95 1016.8
20260903091602 72 0.0 0.0 0.00 0.11 0.00 95 1016.8
20260903091058 72 0.0 0.0 0.00 0.11 0.00 95 1016.9
20260903090547 72 0.0 0.0 0.00 0.11 0.00 95 1016.9
20260903090107 72 0.0 0.0 0.00 0.11 0.00 95 1016.8
20260903085548 72 0.0 0.0 0.00 0.11 0.00 95 1017.0
20260903085046 72 0.0 0.0 0.00 0.11 0.00 95 1016.8
20260903084604 72 0.0 0.0 0.00 0.11 0.00 95 1016.8
20260903084049 72 0.0 0.0 0.00 0.11 0.00 95 1017.0
20260903083546 72 0.0 0.0 0.00 0.11 0.00 95 1016.9
20260903083103 72 0.0 0.0 0.00 0.11 0.00 95 1017.0
20260903082548 72 0.0 0.0 0.00 0.11 0.00 95 1016.8
20260903082048 72 0.0 0.0 0.00 0.11 0.00 95 1016.8
20260903081606 72 0.0 0.0 0.00 0.11 0.00 95 1016.8
20260903081050 72 0.0 0.0 0.00 0.11 0.00 95 1016.8
20260903080546 72 0.0 0.0 0.00 0.11 0.00 95 1016.7
20260903080105 72 0.0 0.0 0.00 0.11 0.00 95 1016.8
20260903075550 72 0.0 0.0 0.00 0.11 0.00 95 1016.7
20260903075046 72 0.0 0.0 0.00 0.11 0.00 95 1016.5
20260903074605 72 0.0 0.0 0.00 0.11 0.00 95 1016.5
20260903074049 72 0.0 0.0 0.00 0.11 0.00 95 1016.5
20260903073546 72 0.0 0.0 0.00 0.11 0.00 95 1016.5
20260903073107 72 0.0 0.0 0.00 0.11 0.00 95 1016.4
20260903072547 72 0.0 0.0 0.00 0.11 0.00 95 1016.5
20260903072047 72 0.0 0.0 0.00 0.11 0.00 95 1016.5
20260903071611 72 0.0 0.0 0.00 0.11 0.00 95 1016.5
20260903071046 72 0.0 0.0 0.00 0.11 0.00 95 1016.5
20260903070619 72 0.0 0.0 0.00 0.11 0.00 95 1016.5
20260903065547 72 0.0 0.0 0.00 0.11 0.00 95 1016.5
20260903065045 72 0.0 0.0 0.00 0.11 0.00 95 1016.7
20260903064602 72 0.0 0.0 0.00 0.11 0.00 95 1016.6
20260903064047 72 0.0 0.0 0.00 0.11 0.00 95 1016.6
20260903063555 72 0.0 0.0 0.00 0.11 0.00 95 1016.8
20260903063124 72 0.0 0.0 0.00 0.11 0.00 95 1016.9
20260903062546 72 0.0 0.0 0.00 0.11 0.00 95 1016.9
20260903062047 72 0.0 0.0 0.00 0.11 0.00 95 1016.9
20260903061602 72 0.0 0.0 0.00 0.11 0.00 95 1017.0
20260903061044 72 0.0 0.0 0.00 0.11 0.00 94 1017.1
20260903060549 72 0.0 0.0 0.00 0.11 0.00 94 1017.1
20260903060117 72 0.0 0.0 0.00 0.11 0.00 94 1017.3
20260903055546 72 0.0 0.0 0.00 0.11 0.00 94 1017.4
20260903055046 71 0.0 0.0 0.00 0.11 0.00 94 1017.4
20260903054609 71 0.0 0.0 0.00 0.11 0.00 94 1017.4
20260903054046 71 0.0 0.0 0.00 0.11 0.00 94 1017.4
20260903053551 71 0.0 0.0 0.00 0.11 0.00 94 1017.5
20260903053107 71 0.0 0.0 0.00 0.11 0.00 94 1017.5
20260903052546 71 0.0 0.0 0.00 0.11 0.00 94 1017.6
20260903052047 71 0.0 0.0 0.00 0.11 0.00 94 1017.6
20260903051601 71 0.0 0.0 0.00 0.11 0.00 94 1017.6
20260903051046 71 0.0 0.0 0.00 0.11 0.00 94 1017.5
20260903050554 71 0.0 0.0 0.00 0.11 0.00 94 1017.6
20260903050128 71 0.0 0.0 0.00 0.11 0.00 93 1017.6
20260903045547 71 0.0 0.0 0.00 0.11 0.00 93 1017.7
20260903045046 71 0.0 0.0 0.00 0.11 0.00 93 1017.8
20260903044604 71 0.0 0.0 0.00 0.11 0.00 93 1017.8
20260903044046 71 0.0 0.0 0.00 0.11 0.00 93 1017.8
20260903043546 71 0.0 0.0 0.00 0.11 0.00 93 1017.7
20260903043106 71 0.0 0.0 0.00 0.11 0.00 93 1017.6
20260903042546 71 0.0 0.0 0.00 0.11 0.00 93 1017.7
20260903042046 71 0.0 0.0 0.00 0.11 0.00 93 1017.7
20260903041603 72 0.0 0.0 0.00 0.11 0.00 93 1017.8
20260903041046 72 0.0 0.0 0.00 0.11 0.00 93 1017.9
20260903040547 72 0.0 0.0 0.00 0.11 0.00 93 1017.9
20260903040103 72 0.0 0.0 0.00 0.11 0.00 93 1017.9
20260903035557 72 0.0 0.0 0.00 0.11 0.11 93 1017.8
20260903035047 72 0.0 0.0 0.00 0.11 0.11 93 1017.8
20260903034556 72 0.0 0.0 0.00 0.11 0.11 93 1017.9
20260903034049 72 0.0 0.0 0.00 0.11 0.11 93 1017.9
20260903033546 72 0.0 0.0 0.00 0.11 0.11 93 1017.8
20260903033104 72 0.0 0.0 0.00 0.11 0.11 93 1017.7
20260903032549 72 0.0 0.0 0.00 0.11 0.11 92 1017.7
20260903032046 72 0.0 0.0 0.00 0.11 0.11 92 1017.6
20260903031559 72 0.0 0.0 0.00 0.11 0.11 92 1017.6
20260903031048 72 0.0 0.0 0.00 0.11 0.11 92 1017.4
20260903030547 72 0.0 0.0 0.00 0.11 0.11 92 1017.4
20260903030059 72 0.0 0.0 0.00 0.11 0.11 92 1017.3
20260903025548 72 0.0 0.0 0.00 0.11 0.11 92 1017.4
20260903025046 72 0.0 0.0 0.00 0.11 0.11 92 1017.3
20260903024603 73 0.0 0.0 0.00 0.11 0.11 92 1017.4
20260903024047 73 0.0 0.0 0.00 0.11 0.11 92 1017.3
20260903023546 73 0.0 0.0 0.00 0.11 0.11 92 1017.2
20260903023107 73 0.0 0.0 0.00 0.11 0.11 92 1017.2
20260903022559 73 0.0 0.0 0.00 0.11 0.11 92 1017.2
20260903022047 73 0.0 0.0 0.00 0.11 0.11 92 1017.2
20260903021602 73 0.0 0.0 0.00 0.11 0.11 92 1017.4
20260903021047 73 0.0 0.0 0.00 0.11 0.11 92 1017.4
20260903020548 73 0.0 0.0 0.00 0.11 0.11 92 1017.3
20260903015557 74 0.0 0.0 0.00 0.11 0.11 92 1017.5
20260903015049 74 0.0 0.0 0.00 0.11 0.11 92 1017.7
20260903014556 74 0.0 0.0 0.00 0.11 0.11 92 1017.7
20260903014046 74 0.0 0.0 0.00 0.11 0.11 92 1017.7
20260903013546 74 0.0 0.0 0.00 0.11 0.11 92 1017.8
20260903013104 74 0.0 0.0 0.00 0.11 0.11 92 1017.9
20260903012547 74 0.0 0.0 0.00 0.11 0.11 92 1017.7
20260903012046 74 0.0 0.0 0.00 0.11 0.11 92 1017.8
20260903011609 74 0.0 0.0 0.00 0.11 0.11 92 1017.8
20260903011048 75 0.0 0.0 0.00 0.11 0.11 92 1017.9
20260903010549 75 0.0 0.0 0.00 0.11 0.11 92 1017.8
20260903010056 75 0.0 0.0 0.00 0.11 0.11 92 1017.6
20260903005557 75 0.0 0.0 0.00 0.11 0.11 92 1017.8
20260903005050 75 0.0 0.0 0.00 0.11 0.11 92 1018.0
20260903004606 75 0.0 0.0 0.00 0.11 0.11 92 1018.0
20260903004046 75 0.0 0.0 0.00 0.11 0.11 92 1018.0
20260903003545 75 0.0 0.0 0.00 0.11 0.11 92 1018.0
20260903003101 75 0.0 0.0 0.00 0.11 0.11 92 1018.1
20260903002546 75 0.0 0.0 0.00 0.11 0.11 92 1018.2
20260903002049 75 0.0 0.0 0.00 0.11 0.11 92 1018.2
20260903001605 75 0.0 0.0 0.00 0.11 0.11 92 1018.0
20260903001046 75 0.0 0.0 0.00 0.11 0.11 92 1018.1
20260903000547 75 0.0 0.0 0.00 0.11 0.11 92 1018.1
20260903000107 75 0.0 0.0 0.00 0.11 0.11 92 1018.0
20260902235552 75 0.0 0.0 0.00 0.11 0.11 92 1018.0
20260902235045 75 0.0 0.0 0.00 0.11 0.11 92 1018.1
20260902234606 76 0.0 0.0 0.00 0.11 0.11 92 1018.2
20260902234049 76 0.0 0.0 0.00 0.11 0.11 92 1018.1
20260902233548 76 0.0 0.0 0.00 0.11 0.11 92 1018.1
20260902233106 76 0.0 0.0 0.00 0.11 0.11 92 1017.7
20260902232547 76 0.0 0.0 0.00 0.11 0.11 92 1017.5
20260902232046 76 0.0 0.0 0.00 0.11 0.11 92 1018.0
20260902231608 76 0.0 0.0 0.00 0.11 0.11 92 1018.1
20260902231050 76 0.0 0.0 0.00 0.11 0.11 92 1018.0
20260902230546 76 0.0 0.0 0.00 0.11 0.11 92 1018.3
20260902230107 76 0.0 0.0 0.00 0.11 0.11 92 1018.6
20260902225546 77 0.0 0.0 0.00 0.11 0.11 93 1018.5
20260902225046 77 0.0 0.0 0.00 0.11 0.11 93 1018.2
20260902224603 77 0.0 0.0 0.00 0.11 0.11 93 1018.4
20260902224050 76 0.0 0.0 0.00 0.11 0.11 93 1018.6
20260902223546 76 0.0 0.0 0.00 0.11 0.11 93 1018.5
20260902223109 76 0.0 0.0 0.00 0.11 0.11 93 1018.4
20260902222550 76 0.0 0.0 0.00 0.11 0.11 93 1018.5
20260902222047 76 0.0 0.0 0.00 0.11 0.11 93 1018.3
20260902221609 77 0.0 0.0 0.00 0.11 0.11 92 1018.2
20260902221048 77 0.0 0.0 0.00 0.11 0.11 91 1018.3
20260902220550 77 0.0 0.0 0.00 0.11 0.11 91 1017.9
20260902220109 77 0.0 0.0 0.00 0.11 0.11 91 1017.7
20260902215547 77 0.0 0.0 0.00 0.11 0.11 91 1017.7
20260902215047 77 0.0 0.0 0.00 0.11 0.11 90 1017.9
20260902214605 77 0.0 0.0 0.00 0.11 0.11 90 1017.9
20260902214046 77 0.0 0.0 0.00 0.11 0.11 90 1018.0
20260902213545 77 0.0 0.0 0.00 0.11 0.11 89 1018.0
20260902213105 77 0.0 0.0 0.00 0.11 0.11 89 1018.1
20260902212547 77 0.0 0.0 0.00 0.11 0.11 89 1018.1
20260902212047 77 0.0 0.0 0.00 0.11 0.11 88 1018.1
20260902211626 78 0.0 0.0 0.01 0.11 0.11 88 1018.2
20260902211046 78 0.0 0.0 0.01 0.11 0.11 88 1018.3
20260902210546 78 0.0 0.0 0.01 0.11 0.11 87 1018.3
20260902210106 78 0.0 0.0 0.01 0.11 0.11 87 1018.4
20260902205546 79 0.0 0.0 0.02 0.11 0.11 87 1018.7
20260902205048 79 0.0 0.0 0.04 0.11 0.11 87 1018.8
20260902204607 79 0.0 0.0 0.05 0.11 0.11 87 1018.7
20260902204046 79 0.0 0.0 0.06 0.11 0.11 86 1018.7
20260902203545 80 0.0 0.0 0.07 0.11 0.11 86 1018.6
20260902203103 80 0.0 0.0 0.11 0.11 0.11 85 1018.2
20260902202550 80 0.0 0.0 0.11 0.11 0.11 84 1017.8
20260902202049 81 0.0 0.0 0.11 0.11 0.11 82 1017.7
20260902201558 82 0.0 0.0 0.10 0.10 0.10 81 1018.1
20260902201046 82 0.0 0.0 0.10 0.10 0.10 81 1018.1
20260902200548 83 0.0 0.0 0.10 0.10 0.10 79 1018.4
20260902200117 84 0.0 0.0 0.10 0.10 0.10 77 1018.5
20260902195552 84 0.0 0.0 0.09 0.09 0.09 76 1018.6
20260902195044 85 0.0 0.0 0.07 0.07 0.07 73 1018.8
20260902194607 87 0.0 0.0 0.06 0.06 0.06 72 1019.3
20260902194047 87 0.0 0.0 0.05 0.05 0.05 76 1019.7
20260902193552 88 0.0 0.0 0.03 0.03 0.03 72 1019.0
20260902193101 88 0.0 0.0 0.00 0.00 0.00 66 1018.4
20260902192546 89 0.0 0.0 0.00 0.00 0.00 62 1018.8
20260902192046 91 0.0 0.0 0.00 0.00 0.00 58 1018.8
20260902191559 93 0.0 0.0 0.00 0.00 0.00 57 1018.5
20260902191048 94 0.0 0.0 0.00 0.00 0.00 58 1017.9
20260902190547 93 0.0 0.0 0.00 0.00 0.00 59 1017.6
20260902190106 92 0.0 0.0 0.00 0.00 0.00 61 1017.6
20260902185546 91 0.0 0.0 0.00 0.00 0.00 62 1017.7
20260902185100 90 0.0 0.0 0.00 0.00 0.00 63 1017.8
20260902184607 90 0.0 0.0 0.00 0.00 0.00 63 1018.0
20260902184046 91 0.0 0.0 0.00 0.00 0.00 61 1018.2
20260902183547 92 0.0 0.0 0.00 0.00 0.00 59 1018.2
20260902183105 94 0.0 0.0 0.00 0.00 0.00 56 1018.3